Time,TemperatureF,DewpointF,PressureIn,WindDirection,WindDirectionDegrees,WindSpeedMPH,WindSpeedGustMPH,Humidity,HourlyPrecipIn,Conditions,Clouds,dailyrainin,SoftwareType,DateUTC
2013-07-16 00:01:00,65.0,62.0,29.73,SSE,148,7.0,-999.0,91,-99.99,,,-99.99,,2013-07-16 07:01:00,
2013-07-16 00:11:00,65.0,62.0,29.73,SSE,148,7.0,-999.0,91,-99.99,,,-99.99,,2013-07-16 07:11:00,
2013-07-16 00:22:00,65.0,62.0,29.72,South,169,6.0,-999.0,91,-99.99,,,-99.99,,2013-07-16 07:22:00,
2013-07-16 00:32:00,64.0,61.0,29.72,South,172,6.0,-999.0,91,-99.99,,,-99.99,,2013-07-16 07:32:00,
2013-07-16 00:43:00,64.0,61.0,29.72,South,172,6.0,-999.0,91,-99.99,,,-99.99,,2013-07-16 07:43:00,
2013-07-16 00:52:00,64.0,61.0,29.71,SSE,148,3.0,-999.0,91,-99.99,,,-99.99,,2013-07-16 07:52:00,
2013-07-16 01:01:00,64.0,61.0,29.72,SE,143,1.0,-999.0,91,-99.99,,,-99.99,,2013-07-16 08:01:00,
2013-07-16 01:11:00,64.0,61.0,29.72,SE,143,1.0,-999.0,91,-99.99,,,-99.99,,2013-07-16 08:11:00,
2013-07-16 01:22:00,64.0,61.0,29.72,SE,144,0.0,-999.0,91,-99.99,,,-99.99,,2013-07-16 08:22:00,
2013-07-16 01:32:00,64.0,61.0,29.73,East,82,1.0,-999.0,91,-99.99,,,-99.99,,2013-07-16 08:32:00,
2013-07-16 01:43:00,64.0,61.0,29.73,East,82,1.0,-999.0,91,-99.99,,,-99.99,,2013-07-16 08:43:00,
2013-07-16 01:52:00,65.0,62.0,29.73,ESE,113,1.0,-999.0,90,-99.99,,,-99.99,,2013-07-16 08:52:00,
2013-07-16 02:01:00,65.0,62.0,29.73,ESE,116,0.0,-999.0,90,-99.99,,,-99.99,,2013-07-16 09:01:00,
2013-07-16 02:12:00,65.0,62.0,29.73,ESE,116,0.0,-999.0,90,-99.99,,,-99.99,,2013-07-16 09:12:00,
2013-07-16 02:22:00,65.0,62.0,29.73,ESE,116,0.0,-999.0,90,-99.99,,,-99.99,,2013-07-16 09:22:00,
2013-07-16 02:42:00,65.0,62.0,29.74,ESE,115,1.0,-999.0,90,-99.99,,,-99.99,,2013-07-16 09:42:00,
2013-07-16 02:52:00,65.0,62.0,29.74,ESE,115,1.0,-999.0,90,-99.99,,,-99.99,,2013-07-16 09:52:00,
2013-07-16 03:01:00,65.0,62.0,29.75,ESE,115,0.0,-999.0,91,-99.99,,,-99.99,,2013-07-16 10:01:00,
2013-07-16 03:11:00,65.0,62.0,29.75,ESE,115,0.0,-999.0,91,-99.99,,,-99.99,,2013-07-16 10:11:00,
2013-07-16 03:21:00,65.0,62.0,29.75,ESE,116,0.0,-999.0,91,-99.99,,,-99.99,,2013-07-16 10:21:00,
2013-07-16 03:31:00,65.0,62.0,29.74,SE,136,1.0,-999.0,90,-99.99,,,-99.99,,2013-07-16 10:31:00,
2013-07-16 03:42:00,65.0,62.0,29.74,SE,136,1.0,-999.0,90,-99.99,,,-99.99,,2013-07-16 10:42:00,
2013-07-16 03:52:00,64.0,61.0,29.74,SSE,154,2.0,-999.0,89,-99.99,,,-99.99,,2013-07-16 10:52:00,
2013-07-16 04:01:00,64.0,61.0,29.74,SE,141,2.0,-999.0,89,-99.99,,,-99.99,,2013-07-16 11:01:00,
2013-07-16 04:11:00,64.0,61.0,29.74,SE,141,2.0,-999.0,89,-99.99,,,-99.99,,2013-07-16 11:11:00,
2013-07-16 04:22:00,65.0,62.0,29.75,SE,143,1.0,-999.0,89,-99.99,,,-99.99,,2013-07-16 11:22:00,
2013-07-16 04:32:00,65.0,61.0,29.75,SE,144,1.0,-999.0,88,-99.99,,,-99.99,,2013-07-16 11:32:00,
2013-07-16 04:42:00,65.0,61.0,29.75,SE,144,1.0,-999.0,88,-99.99,,,-99.99,,2013-07-16 11:42:00,
2013-07-16 04:53:00,65.0,61.0,29.74,SE,144,1.0,-999.0,88,-99.99,,,-99.99,,2013-07-16 11:53:00,
2013-07-16 05:01:00,65.0,61.0,29.74,SSE,155,1.0,-999.0,87,-99.99,,,-99.99,,2013-07-16 12:01:00,
2013-07-16 05:11:00,65.0,61.0,29.74,SSE,155,1.0,-999.0,87,-99.99,,,-99.99,,2013-07-16 12:11:00,
2013-07-16 05:22:00,65.0,61.0,29.74,SSE,154,0.0,-999.0,87,-99.99,,,-99.99,,2013-07-16 12:22:00,
2013-07-16 05:32:00,65.0,61.0,29.74,SSE,154,0.0,-999.0,87,-99.99,,,-99.99,,2013-07-16 12:32:00,
2013-07-16 05:43:00,65.0,61.0,29.75,SSE,153,0.0,-999.0,87,-99.99,,,-99.99,,2013-07-16 12:43:00,
2013-07-16 05:53:00,65.0,61.0,29.75,SSE,148,0.0,-999.0,88,-99.99,,,-99.99,,2013-07-16 12:53:00,
2013-07-16 06:01:00,65.0,61.0,29.76,SSE,159,2.0,-999.0,88,-99.99,,,-99.99,,2013-07-16 13:01:00,
2013-07-16 06:11:00,65.0,61.0,29.76,SSE,159,2.0,-999.0,88,-99.99,,,-99.99,,2013-07-16 13:11:00,
2013-07-16 06:21:00,65.0,61.0,29.76,SSE,161,1.0,-999.0,87,-99.99,,,-99.99,,2013-07-16 13:21:00,
2013-07-16 06:32:00,65.0,61.0,29.76,SW,236,0.0,-999.0,86,-99.99,,,-99.99,,2013-07-16 13:32:00,
2013-07-16 06:42:00,65.0,61.0,29.76,SW,236,0.0,-999.0,86,-99.99,,,-99.99,,2013-07-16 13:42:00,
2013-07-16 06:52:00,66.0,61.0,29.77,SE,125,1.0,-999.0,85,-99.99,,,-99.99,,2013-07-16 13:52:00,
2013-07-16 07:01:00,66.0,61.0,29.77,East,81,0.0,-999.0,85,-99.99,,,-99.99,,2013-07-16 14:01:00,
2013-07-16 07:11:00,66.0,61.0,29.77,East,81,0.0,-999.0,85,-99.99,,,-99.99,,2013-07-16 14:11:00,
2013-07-16 07:21:00,66.0,61.0,29.78,SSE,167,0.0,-999.0,85,-99.99,,,-99.99,,2013-07-16 14:21:00,
2013-07-16 07:42:00,67.0,62.0,29.78,SSE,167,0.0,-999.0,85,-99.99,,,-99.99,,2013-07-16 14:42:00,
2013-07-16 07:52:00,68.0,62.0,29.78,SSE,167,0.0,-999.0,81,-99.99,,,-99.99,,2013-07-16 14:52:00,
2013-07-16 08:01:00,69.0,63.0,29.78,SSE,167,0.0,-999.0,81,-99.99,,,-99.99,,2013-07-16 15:01:00,
2013-07-16 08:11:00,69.0,63.0,29.78,SSE,167,0.0,-999.0,81,-99.99,,,-99.99,,2013-07-16 15:11:00,
2013-07-16 08:21:00,70.0,62.0,29.78,ESE,104,1.0,-999.0,77,-99.99,,,-99.99,,2013-07-16 15:21:00,
2013-07-16 08:43:00,70.0,61.0,29.79,ESE,119,2.0,-999.0,73,-99.99,,,-99.99,,2013-07-16 15:43:00,
2013-07-16 08:53:00,70.0,62.0,29.79,ESE,117,4.0,-999.0,76,-99.99,,,-99.99,,2013-07-16 15:53:00,
2013-07-16 09:01:00,70.0,62.0,29.78,SE,126,5.0,-999.0,76,-99.99,,,-99.99,,2013-07-16 16:01:00,
2013-07-16 09:11:00,70.0,62.0,29.78,SE,126,5.0,-999.0,76,-99.99,,,-99.99,,2013-07-16 16:11:00,
2013-07-16 09:21:00,70.0,62.0,29.79,ESE,119,5.0,-999.0,75,-99.99,,,-99.99,,2013-07-16 16:21:00,
2013-07-16 09:32:00,70.0,62.0,29.79,ESE,119,5.0,-999.0,75,-99.99,,,-99.99,,2013-07-16 16:32:00,
2013-07-16 09:43:00,71.0,62.0,29.78,SSE,153,7.0,-999.0,74,-99.99,,,-99.99,,2013-07-16 16:43:00,
2013-07-16 09:52:00,71.0,62.0,29.80,SE,134,4.0,-999.0,72,-99.99,,,-99.99,,2013-07-16 16:52:00,
2013-07-16 10:02:00,71.0,62.0,29.80,ESE,119,4.0,-999.0,73,-99.99,,,-99.99,,2013-07-16 17:02:00,
2013-07-16 10:11:00,71.0,62.0,29.80,ESE,119,4.0,-999.0,73,-99.99,,,-99.99,,2013-07-16 17:11:00,
2013-07-16 10:22:00,71.0,62.0,29.80,East,89,4.0,-999.0,72,-99.99,,,-99.99,,2013-07-16 17:22:00,
2013-07-16 10:32:00,71.0,62.0,29.80,East,89,4.0,-999.0,72,-99.99,,,-99.99,,2013-07-16 17:32:00,
2013-07-16 10:43:00,72.0,62.0,29.80,ESE,114,3.0,-999.0,71,-99.99,,,-99.99,,2013-07-16 17:43:00,
2013-07-16 10:53:00,72.0,62.0,29.80,ESE,114,4.0,-999.0,72,-99.99,,,-99.99,,2013-07-16 17:53:00,
2013-07-16 11:01:00,72.0,62.0,29.81,SE,140,3.0,-999.0,71,-99.99,,,-99.99,,2013-07-16 18:01:00,
2013-07-16 11:11:00,72.0,62.0,29.81,SE,140,3.0,-999.0,71,-99.99,,,-99.99,,2013-07-16 18:11:00,
2013-07-16 11:32:00,72.0,64.0,29.81,SSE,150,3.0,-999.0,75,-99.99,,,-99.99,,2013-07-16 18:32:00,
2013-07-16 11:43:00,72.0,64.0,29.81,ESE,115,2.0,-999.0,75,-99.99,,,-99.99,,2013-07-16 18:43:00,
2013-07-16 11:52:00,71.0,64.0,29.81,SE,143,2.0,-999.0,78,-99.99,,,-99.99,,2013-07-16 18:52:00,
2013-07-16 12:01:00,72.0,62.0,29.81,SSE,149,1.0,-999.0,71,-99.99,,,-99.99,,2013-07-16 19:01:00,
2013-07-16 12:11:00,72.0,62.0,29.81,SSE,149,1.0,-999.0,71,-99.99,,,-99.99,,2013-07-16 19:11:00,
2013-07-16 12:22:00,74.0,62.0,29.81,SSE,164,2.0,-999.0,67,-99.99,,,-99.99,,2013-07-16 19:22:00,
2013-07-16 12:32:00,75.0,63.0,29.80,SE,145,1.0,-999.0,67,-99.99,,,-99.99,,2013-07-16 19:32:00,
2013-07-16 12:43:00,75.0,63.0,29.80,SE,145,1.0,-999.0,67,-99.99,,,-99.99,,2013-07-16 19:43:00,
2013-07-16 12:52:00,77.0,62.0,29.79,South,186,1.0,-999.0,60,-99.99,,,-99.99,,2013-07-16 19:52:00,
2013-07-16 13:03:00,78.0,59.0,29.79,NE,40,2.0,-999.0,53,-99.99,,,-99.99,,2013-07-16 20:03:00,
2013-07-16 13:11:00,78.0,59.0,29.79,NE,40,2.0,-999.0,53,-99.99,,,-99.99,,2013-07-16 20:11:00,
2013-07-16 13:32:00,77.0,60.0,29.79,SE,144,1.0,-999.0,56,-99.99,,,-99.99,,2013-07-16 20:32:00,
2013-07-16 13:43:00,79.0,61.0,29.79,ESE,119,1.0,-999.0,54,-99.99,,,-99.99,,2013-07-16 20:43:00,
2013-07-16 13:52:00,79.0,61.0,29.79,SE,133,2.0,-999.0,55,-99.99,,,-99.99,,2013-07-16 20:52:00,
2013-07-16 14:01:00,79.0,61.0,29.79,SE,133,2.0,-999.0,55,-99.99,,,-99.99,,2013-07-16 21:01:00,
2013-07-16 14:11:00,77.0,61.0,29.78,SE,139,2.0,-999.0,58,-99.99,,,-99.99,,2013-07-16 21:11:00,
2013-07-16 14:32:00,77.0,61.0,29.77,SE,141,0.0,-999.0,57,-99.99,,,-99.99,,2013-07-16 21:32:00,
2013-07-16 14:43:00,76.0,61.0,29.77,WNW,289,3.0,-999.0,60,-99.99,,,-99.99,,2013-07-16 21:43:00,
2013-07-16 14:52:00,76.0,61.0,29.77,WNW,289,3.0,-999.0,60,-99.99,,,-99.99,,2013-07-16 21:52:00,
2013-07-16 15:01:00,74.0,65.0,29.76,NW,322,2.0,-999.0,73,-99.99,,,-99.99,,2013-07-16 22:01:00,
2013-07-16 15:11:00,72.0,65.0,29.77,NW,322,0.0,-999.0,80,-99.99,,,-99.99,,2013-07-16 22:11:00,
2013-07-16 15:22:00,71.0,65.0,29.79,NNE,17,1.0,-999.0,81,-99.99,,,-99.99,,2013-07-16 22:22:00,
2013-07-16 15:32:00,69.0,64.0,29.80,NE,34,0.0,-999.0,83,-99.99,,,-99.99,,2013-07-16 22:32:00,
2013-07-16 15:43:00,69.0,64.0,29.80,NE,34,0.0,-999.0,83,-99.99,,,-99.99,,2013-07-16 22:43:00,
2013-07-16 15:52:00,68.0,63.0,29.80,NE,53,0.0,-999.0,85,-99.99,,,-99.99,,2013-07-16 22:52:00,
2013-07-16 16:01:00,67.0,63.0,29.81,NE,53,0.0,-999.0,86,-99.99,,,-99.99,,2013-07-16 23:01:00,
2013-07-16 16:11:00,67.0,63.0,29.81,NE,53,0.0,-999.0,86,-99.99,,,-99.99,,2013-07-16 23:11:00,
2013-07-16 16:22:00,67.0,63.0,29.81,NE,53,0.0,-999.0,88,-99.99,,,-99.99,,2013-07-16 23:22:00,
2013-07-16 16:32:00,67.0,63.0,29.81,NE,53,0.0,-999.0,88,-99.99,,,-99.99,,2013-07-16 23:32:00,
2013-07-16 16:42:00,66.0,62.0,29.82,NE,53,0.0,-999.0,88,-99.99,,,-99.99,,2013-07-16 23:42:00,
2013-07-16 16:52:00,66.0,63.0,29.82,NE,53,0.0,-999.0,89,-99.99,,,-99.99,,2013-07-16 23:52:00,
2013-07-16 17:01:00,66.0,63.0,29.82,NE,53,0.0,-999.0,89,-99.99,,,-99.99,,2013-07-17 00:01:00,
2013-07-16 17:22:00,65.0,62.0,29.82,NE,53,0.0,-999.0,90,-99.99,,,-99.99,,2013-07-17 00:22:00,
2013-07-16 17:33:00,65.0,62.0,29.82,NE,53,0.0,-999.0,90,-99.99,,,-99.99,,2013-07-17 00:33:00,
2013-07-16 17:42:00,65.0,62.0,29.82,ENE,57,1.0,-999.0,91,-99.99,,,-99.99,,2013-07-17 00:42:00,
2013-07-16 17:52:00,65.0,62.0,29.82,ENE,68,0.0,-999.0,91,-99.99,,,-99.99,,2013-07-17 00:52:00,
2013-07-16 18:01:00,65.0,63.0,29.83,ENE,68,0.0,-999.0,92,-99.99,,,-99.99,,2013-07-17 01:01:00,
2013-07-16 18:11:00,65.0,63.0,29.83,ENE,68,0.0,-999.0,92,-99.99,,,-99.99,,2013-07-17 01:11:00,
2013-07-16 18:22:00,65.0,63.0,29.84,ENE,68,0.0,-999.0,92,-99.99,,,-99.99,,2013-07-17 01:22:00,
2013-07-16 18:32:00,65.0,63.0,29.84,ENE,68,0.0,-999.0,92,-99.99,,,-99.99,,2013-07-17 01:32:00,
2013-07-16 18:42:00,65.0,63.0,29.83,ENE,69,0.0,-999.0,92,-99.99,,,-99.99,,2013-07-17 01:42:00,
2013-07-16 18:53:00,64.0,62.0,29.83,ENE,69,0.0,-999.0,92,-99.99,,,-99.99,,2013-07-17 01:53:00,
2013-07-16 19:01:00,64.0,62.0,29.83,ENE,69,0.0,-999.0,92,-99.99,,,-99.99,,2013-07-17 02:01:00,
2013-07-16 19:11:00,65.0,63.0,29.83,ENE,69,0.0,-999.0,92,-99.99,,,-99.99,,2013-07-17 02:11:00,
2013-07-16 19:32:00,64.0,62.0,29.83,SE,128,1.0,-999.0,92,-99.99,,,-99.99,,2013-07-17 02:32:00,
2013-07-16 19:43:00,64.0,62.0,29.83,SE,128,1.0,-999.0,92,-99.99,,,-99.99,,2013-07-17 02:43:00,
2013-07-16 19:53:00,64.0,62.0,29.83,SE,128,0.0,-999.0,92,-99.99,,,-99.99,,2013-07-17 02:53:00,
2013-07-16 20:01:00,64.0,62.0,29.83,SE,128,0.0,-999.0,93,-99.99,,,-99.99,,2013-07-17 03:01:00,
2013-07-16 20:11:00,64.0,62.0,29.83,SE,128,0.0,-999.0,93,-99.99,,,-99.99,,2013-07-17 03:11:00,
2013-07-16 20:32:00,64.0,62.0,29.84,SE,128,0.0,-999.0,93,-99.99,,,-99.99,,2013-07-17 03:32:00,
2013-07-16 20:43:00,64.0,62.0,29.84,SE,128,0.0,-999.0,93,-99.99,,,-99.99,,2013-07-17 03:43:00,
2013-07-16 20:53:00,64.0,62.0,29.85,SE,128,0.0,-999.0,93,-99.99,,,-99.99,,2013-07-17 03:53:00,
2013-07-16 21:01:00,64.0,62.0,29.85,SE,128,0.0,-999.0,93,-99.99,,,-99.99,,2013-07-17 04:01:00,
2013-07-16 21:11:00,64.0,62.0,29.85,SE,128,0.0,-999.0,93,-99.99,,,-99.99,,2013-07-17 04:11:00,
2013-07-16 21:22:00,64.0,62.0,29.85,SE,128,0.0,-999.0,93,-99.99,,,-99.99,,2013-07-17 04:22:00,
2013-07-16 21:32:00,64.0,62.0,29.85,SE,128,0.0,-999.0,93,-99.99,,,-99.99,,2013-07-17 04:32:00,
2013-07-16 21:43:00,64.0,62.0,29.86,SE,128,0.0,-999.0,93,-99.99,,,-99.99,,2013-07-17 04:43:00,
2013-07-16 21:53:00,64.0,62.0,29.88,SE,128,0.0,-999.0,93,-99.99,,,-99.99,,2013-07-17 04:53:00,
2013-07-16 22:01:00,64.0,62.0,29.89,SE,128,0.0,-999.0,93,-99.99,,,-99.99,,2013-07-17 05:01:00,
2013-07-16 22:11:00,64.0,62.0,29.89,SE,128,0.0,-999.0,93,-99.99,,,-99.99,,2013-07-17 05:11:00,
2013-07-16 22:21:00,64.0,62.0,29.89,SE,128,0.0,-999.0,93,-99.99,,,-99.99,,2013-07-17 05:21:00,
2013-07-16 22:32:00,64.0,62.0,29.89,SE,128,0.0,-999.0,93,-99.99,,,-99.99,,2013-07-17 05:32:00,
2013-07-16 22:43:00,64.0,62.0,29.89,SE,128,0.0,-999.0,93,-99.99,,,-99.99,,2013-07-17 05:43:00,
2013-07-16 22:52:00,64.0,62.0,29.89,SE,128,0.0,-999.0,93,-99.99,,,-99.99,,2013-07-17 05:52:00,
2013-07-16 23:01:00,64.0,62.0,29.89,SE,128,0.0,-999.0,93,-99.99,,,-99.99,,2013-07-17 06:01:00,
2013-07-16 23:11:00,64.0,62.0,29.89,SE,128,0.0,-999.0,93,-99.99,,,-99.99,,2013-07-17 06:11:00,
2013-07-16 23:32:00,64.0,62.0,29.89,SE,128,0.0,-999.0,93,-99.99,,,-99.99,,2013-07-17 06:32:00,
2013-07-16 23:43:00,63.0,61.0,29.89,SSW,200,1.0,-999.0,93,-99.99,,,-99.99,,2013-07-17 06:43:00,
2013-07-16 23:52:00,63.0,61.0,29.89,SSW,200,0.0,-999.0,93,-99.99,,,-99.99,,2013-07-17 06:52:00,